Regional Weather Roundup
Issued by NWS Grand Forks, ND

Home | Current Version | Previous Version | Graphics & Text | Print | Product List | Glossary On
Versions: 1 2 3 4 5 6 7 8 9 10 11 12 13 14 15 16 17 18 19 20 21 22 23 24 25 26 27 28 29 30 31 32 33 34 35 36 37 38 39 40 41 42 43 44 45 46 47 48 49 50
000
ASUS43 KFGF 122231
RWRFGF
PRAIRIE TO PINES  WEATHER ROUNDUP
NATIONAL WEATHER SERVICE EASTERN NORTH DAKOTA/GRAND FORKS ND
400 PM CST FRI FEB 12 2016

 **SATELLITE DATA USED TO AUGMENT SKY COVER AT AUTOMATED STATIONS**
 *****  WEATHER ACROSS EASTERN NORTH DAKOTA  *****

CITY           SKY/WX    TMP DP  RH WIND       PRES   REMARKS
GRAND FORKS    MOSUNNY    2  -9  60 N13       30.68R WCI -15
GRAND FRKS AFB SUNNY     -1 -11  61 NW10      30.67S WCI -17
DEVILS LAKE    CLOUDY    -5 -12  72 NW8       30.62F WCI -20
FARGO          SUNNY      2  -9  60 N16       30.66S WCI -18
WAHPETON ARPT  PTCLDY     3  -8  60 NW15      30.65R WCI -15
$$

 ***** WEATHER ACROSS CENTRAL AND WESTERN NORTH DAKOTA  *****

CITY           SKY/WX    TMP DP  RH WIND       PRES   REMARKS
BISMARCK       MOSUNNY   13  -1  54 SE7       30.58S WCI   3
MINOT          SUNNY      9  -7  48 N3        30.57S
JAMESTOWN      CLOUDY     1  -9  62 N13       30.59F WCI -17
MINOT AFB      MOSUNNY    8  -5  55 CALM      30.57S
GARRISON         N/A      9  -3  58 E5        30.53F WCI   1
WILLISTON      MOSUNNY   14   0  53 E9        30.47F WCI   2
DICKINSON      CLOUDY    11  -1  58 E9        30.41F WCI  -2
HETTINGER      CLOUDY    13   2  61 E12       30.43F WCI  -1
$$

 *****  OTHER AIRPORT OBSERVATIONS IN OUR AREA  *****

CITY           SKY/WX    TMP DP  RH WIND       PRES   REMARKS
WALHALLA       FAIR       0 -11  60 NW12      30.68R WCI -18
GRAFTON AIRPOR FAIR       0 -11  60 NW13      30.70S WCI -18
VALLEY CITY AR FAIR      -2 -11  65 NW12      30.64R WCI -20
CANDO          FAIR      -4  -9  77 W5        30.63F WCI -15
CAVALIER APRT  FAIR       0  -9  65 NW12      30.68S WCI -18
GWINNER        FAIR       3  -6  66 N12       30.63S WCI -13
ROLLA          FAIR      -2 -11  65 N7        30.57S WCI -16
 ***** THE ABOVE OBSERVATIONS ARE NON NWS ARE NOT QUALITY
       CONTROLLED AND MAY MIS-REPORT RAIN FOR SNOW...
$$

  *****  WEATHER ACROSS NORTHERN MINNESOTA  *****

CITY           SKY/WX    TMP DP  RH WIND       PRES   REMARKS
FLAG ISLAND    SUNNY     -6 -17  59 NW16      30.55R WCI -28
WARROAD        MOSUNNY   -2 -17  50 NW13      30.57R WCI -21
ROSEAU         PTSUNNY   -4 -15  59 W9        30.59R WCI -20
HALLOCK        SUNNY     -4 -15  59 NW14      30.67S WCI -24
THF RVR FALLS  SUNNY     -6 -27  34 NW16      30.62S WCI -28
BAUDETTE       SUNNY     -3 -18  48 NW14      30.52R WCI -22
WASKISH        SUNNY      0 -15  50 W10       30.53R WCI -17
CROOKSTON      SUNNY     -2  -9  71 N16       30.68R WCI -23
STEPHEN NDAWN    N/A     -2 -11  65 N13         N/A  WCI -21
GREENBUSH NDAW   N/A     -8 -15  71 NW13        N/A  WCI -28
$$
  *****  WEATHER ACROSS CENTRAL AND WEST MINNESOTA  *****

CITY           SKY/WX    TMP DP  RH WIND       PRES   REMARKS
FOSSTON          N/A     -2 -15  55 NW13      30.60R WCI -21
BEMIDJI        SUNNY     -3 -14  58 NW18G24   30.53R WCI -25
PARK RAPIDS    SUNNY      2 -14  47 NW14      30.51R WCI -16
ELBOW LAKE     FAIR       1  -9  62 N17       30.59R WCI -19
WADENA         SUNNY      0 -13  55 NW16      30.54R WCI -21
DETROIT LAKES  SUNNY     -2  -9  71 N16G22    30.59R WCI -23
MOORHEAD       SUNNY      0  -9  65 N14       30.66S WCI -19
FERGUS FALLS   SUNNY      1  -9  60 N15G24    30.64S WCI -18
MORRIS MN      SUNNY      3  -6  66 NW20G26   30.58R WCI -18
STAPLES        SUNNY      3 -13  47 NW13G21   30.52R WCI -14
$$
  *****  WEATHER ELSEWHERE ACROSS MINNESOTA  *****

CITY           SKY/WX    TMP DP  RH WIND       PRES   REMARKS
DULUTH         MOSUNNY    1 -16  44 NW18G28   30.37R WCI -20
INTRNTL FALLS  SUNNY     -3 -19  46 NW17      30.48R WCI -24
ELY            SUNNY     -2 -17  50 NW12G21   30.37R WCI -20
CLOQUET        SUNNY      1 -18  39 W16G22    30.41R WCI -18
WHEATON        CLOUDY     3  -4  72 NW16      30.66R WCI -16
BRAINERD       SUNNY      5 -13  43 N14       30.49R WCI -12
HIBBING        SUNNY     -2 -17  49 NW20G26   30.42R WCI -24
ALEXANDRIA     SUNNY      2 -12  52 NW16      30.53R WCI -18
SAINT CLOUD    SUNNY      8 -11  41 NW15      30.50R WCI  -9
MINNEAPOLIS    SUNNY     10  -9  42 NW17      30.49R WCI  -8
$$

  *****  WEATHER ACROSS SOUTH DAKOTA  *****

CITY           SKY/WX    TMP DP  RH WIND       PRES   REMARKS
SIOUX FALLS    CLOUDY    10  -1  61 N12       30.56R WCI  -5
BROOKINGS      CLOUDY     6  -6  57 N13       30.54  WCI -10
WATERTOWN      CLOUDY     4  -7  60 N14       30.54R WCI -14
HURON          SUNNY     11   0  61 N13       30.61R WCI  -4
SISSETON         N/A      2  -7  66 N17       30.63R WCI -18
ABERDEEN       SUNNY      7  -5  57 N14       30.63R WCI -10
MITCHELL       SUNNY     13   3  64 N13       30.60R WCI  -2
PIERRE         CLOUDY    21  10  62 E8        30.51S WCI  11
MOBRIDGE       MOSUNNY   17   6  62 NE7       30.51F WCI   8
RAPID CITY     FOG       25  24  96 SE15      30.34F VSB 1/4 WCI  13
$$

  *****  SOME WEATHER IN NEARBY STATES *****

CITY           SKY/WX    TMP DP  RH WIND       PRES   REMARKS
GLASGOW MT     CLOUDY    17  10  74 E22       30.31F WCI   0
GREAT FALLS MT PTSUNNY   51  36  56 S7        30.04F
CHEYENNE WY    SUNNY     52  28  39 S10       30.22F
SCOTTSBLUFF NE CLOUDY    37  31  78 E18       30.28F
OMAHA NE       MOSUNNY   21   7  54 N18       30.56R WCI   6
DES MOINES IA  MOSUNNY   17   0  47 N16       30.50R WCI   2
DAVENPORT IA   SUNNY     18   0  45 NW25G38   30.34R WCI   0
CHICAGO IL     MOSUNNY   21   1  41 NW22G31   30.19R WCI   5
EAU CLAIRE WI  SUNNY      8 -13  37 NW16G26   30.41R WCI -10
LA CROSSE WI   SUNNY     12  -5  46 N23       30.39R WCI  -7
$$

  *****  SOME NATIONAL WEATHER *****

CITY           SKY/WX    TMP DP  RH WIND       PRES   REMARKS
LA GUARDIA NY  CLOUDY    26   0  32 S14G20    30.03F WCI  14
RALEIGH NC     CLOUDY    31  20  63 CALM      30.03F
ATLANTA GA     MOSUNNY   60  31  33 NW18G29   30.04R
NEW ORLEANS LA MOSUNNY   76  52  43 W14       30.17S
OKLAHOMA CITY  SUNNY     59  32  36 N12       30.34S
ALBUQUERQUE NM SUNNY     67  19  16 W5        30.30F
SALT LAKE CITY LGT SNOW  30  27  88 CALM      30.36F FOG
LOS ANGELES CA PTSUNNY   73  41  31 W10       30.04F
BOISE ID       MOSUNNY   47  33  58 N5        30.26F
SEATTLE WA     MOSUNNY   56  45  66 S12       30.14S
$$

*** WEATHER ACROSS MANITOBA...SASKATCHEWAN AND ONTARIO ***
                ***ONTARIO***

CITY           SKY/WX    TMP DP  RH WIND       PRES   REMARKS
GERALDTON      CLEAR    -13 -24  58 W10G21    30.16R WCI -32
THUNDER BAY    MOSUNNY   -2 -17  50 W13G24    30.33R WCI -21
SIOUX LOOKOUT  MOSUNNY   -9 -20  59 NW9G21    30.37R WCI -27
TORONTO        MOCLDY    21   3  45 W22G30    29.82S WCI   5
BIG TROUT LK   PTCLDY   -15 -24  64 NW16G23   30.31R WCI -39
PICKLE LAKE    CRYSTALS  -9 -22  54 W9G18     30.26R WCI -27
DRYDEN         SUNNY     -6 -17  59 NW8G24    30.41R WCI -21
KENORA         SUNNY     -6 -17  59 NW14      30.49R WCI -26
$$
                *** MANITOBA***

CITY           SKY/WX    TMP DP  RH WIND       PRES   REMARKS
BRANDON        PTSUNNY   -2 -13  60 NW7       30.62S WCI -16
DAUPHIN        SUNNY     -2 -17  50 VRB2      30.66S
ISLAND LAKE    CLEAR     -9 -18  64 W13       30.49S WCI -30
PILOT MOUND      N/A     -6 -15  65 N6          N/A  WCI -18
THE PAS        MOSUNNY   -6 -20  49 NW6       30.65F WCI -18
THOMPSON       CLEAR     -6 -17  59 NW12      30.56S WCI -24
WINNIPEG       MOSUNNY   -8 -18  59 NW15      30.68S WCI -29
LYNN LAKE      SUNNY     -9 -18  64 W7        30.56F WCI -24
CHURCHILL      CRYSTALS -17 -24  70 NW18G24   30.46S BLWGSNOWWCI -43
GILLAM         CLEAR    -11 -20  64 W15G21    30.47S WCI -34
$$
                ***SASKATCHEWAN***

CITY           SKY/WX    TMP DP  RH WIND       PRES   REMARKS
ESTEVAN        PTSUNNY   14  -6  41 SE8       30.50F WCI   3
KINDERSLEY     CLOUDY    14   5  67 SE23G30   30.21F WCI  -5
LLOYDMINSTER   CLOUDY     7   0  72 SE17G28   30.25F WCI -12
PRINCE ALBERT  PTSUNNY   -8 -17  65 E7        30.54  WCI -22
REGINA         PTSUNNY   10  -2  56 SE15      30.46F WCI  -6
YORKTON        SUNNY     -8 -15  71 E3        30.57F
N. BATTLEFORD  MOSUNNY    3  -2  78 E20G26    30.38F WCI -18
LA RONGE       MOSUNNY   -9 -20  59 NE9       30.54  WCI -27
SASKATOON      PTSUNNY    7  -2  66 E14       30.46F WCI -10
SWIFT CURRENT  CLOUDY    12   5  73 SE22G28   30.22F WCI  -7
$$
NOTE: THESE ARE AUTOMATED STATIONS WITH LIMITED QUALITY CONTROL
      "FAIR" INDICATES FEW OR NO CLOUDS BELOW 12,000 FEET WITH NO
      SIGNIFICANT WEATHER AND/OR OBSTRUCTIONS TO VISIBILITY.
      SKY/WX - SKY CONDITION AND SIGNIFICANT WEATHER.
      TMP - AIR TEMPERATURE.    DP   - DEWPOINT TEMPERATURE.
      RH  - RELATIVE HUMIDITY.  PRES - PRESSURE.
      HX  - HEAT INDEX.         WCI  - WIND CHILL INDEX.
$



USA.gov is the U.S. government's official web portal to all federal, state and local government web resources and services.